Regional Weather Roundup
Issued by NWS Midland/Odessa, TX

Skip options and go directly to product.
Home | Oldest Version | Previous Version | Current Version | All | Text Only | Save Text | Print | Product List | Glossary On

Skip product version selection by date and time.   
510
ASUS44 KMAF 300501
RWRMAF
MIDLAND AREA WEATHER ROUNDUP
NATIONAL WEATHER SERVICE MIDLAND TX
1200 AM CDT SUN APR 30 2017

...IN SOUTHWEST TEXAS AND SOUTHEAST NEW MEXICO...

CITY           SKY/WX    TMP DP  RH WIND       PRES   REMARKS
ALPINE         MOCLDY    42  32  68 NE12      30.13S WCI  35
ANDREWS        FAIR      38  33  81 N16G26    30.01F WCI  29
ARTESIA        CLEAR     37  36  93 W7G13     30.10S WCI  32
BIG SPRING     PTCLDY    41  34  74 NW17G24   29.98F WCI  33
CARLSBAD       CLEAR     39  35  86 W10       30.09R WCI  32
DRYDEN           N/A     55  34  45 NW23G36   29.93S
FORT STOCKTON  PTCLDY    45  34  65 NW14      30.07R WCI  38
GUAD PASS      NOT AVBL
HOBBS          CLEAR     37  32  81 NW13      30.05R WCI  29
MARFA          CLEAR     39  32  76 NE15G22   30.07R WCI  31
MIDLAND AIRPK  CLEAR     42  34  73 NW13      30.00S WCI  35
MIDLAND INTL   CLEAR     42  33  70 N16G28    30.00S WCI  34
ODESSA         CLEAR     42  33  70 N20G26    30.00F WCI  33
PECOS          CLEAR     43  34  70 NW9       30.09R WCI  38
PRESIDIO       FAIR      59  32  35 N10       30.02R
SEMINOLE       CLEAR     38  33  81 N17       30.02F WCI  28
SNYDER         PTCLDY   N/A N/A N/A W16G22    29.96R
WINK           CLEAR     42  33  70 N16       30.04R WCI  34
$$
...OTHER STATIONS IN TEXAS...

CITY           SKY/WX    TMP DP  RH WIND       PRES   REMARKS
ABILENE        CLOUDY    47  45  93 W15G28    29.89R
AMARILLO       LGT SNOW  33  32  96 NW25G37   29.88F FOG     WCI  20
AUSTIN         CLOUDY    67  46  47 N10       29.83R
BROWNSVILLE    CLOUDY    81  76  84 S16       29.59R
CORPUS CHRISTI CLOUDY    80  75  84 S9        29.65R THUNDER
DALLAS FTW     CLOUDY    58  48  69 W14       29.75F
DEL RIO        CLOUDY    66  34  30 NW20G30   29.86R
EL PASO        PTCLDY    48  32  53 N9        30.06R
HOUSTON INT    CLOUDY    79  75  87 W9        29.72S
LUBBOCK        MOCLDY    37  32  82 NW23G32   29.95F WCI  26
SAN ANGELO     CLOUDY    52  39  61 NW18G29   29.92S
SAN ANTONIO    CLOUDY    69  37  30 NW18G25   29.82R
WACO           CLOUDY    59  47  64 NW10      29.83R
WICHITA FALLS  NOT AVBL
$$
...OTHER LOCATIONS IN NEW MEXICO...

CITY           SKY/WX    TMP DP  RH WIND       PRES   REMARKS
ALAMOGORDO     CLEAR     41  32  70 N7        30.06R WCI  36
ALBUQUERQUE    LGT RAIN  37  35  92 S7        30.08S WCI  32
CANNON AFB     CLOUDY    32  32 100 N22G31    30.00S WCI  19
CLOVIS         CLOUDY    34  27  75 N26G35    29.99S WCI  21
HOLLOMAN AFB   NOT AVBL
ROSWELL        CLEAR     40  30  67 N17G25      N/A  WCI  31
RUIDOSO        CLOUDY    28  27  93 W3        30.09S
SANTA FE       CLOUDY    30  30 100 N10       30.04S WCI  21
TRUTH OR CONSE   N/A     42  32  67 N8        30.07R WCI  37
TUCUMCARI      LGT SNOW  34  32  92 NW15      30.03S VSB 1   WCI  24
$$

  • National Weather Service
  • Southern Region Headquarters
  • 819 Taylor Street, Room 10A06
  • Fort Worth, TX 76102
  • Page Author: NWS Fort Worth
  • Web Master: SR-SRH.Webmaster@noaa.gov
  •  
  • Page last modified: 30-Sep-2016 6:36 PM UTC
USA.gov is the U.S. government's official web portal to all federal, state and local government web resources and services.